Theta_e
309 308 308 307 307 306 306 305 305 305 305 305 304 304 304 303 303 303 303 303 302 302 302 302 302 302 302 302 302 302 302 302 301 301 301 301 301 301 301 301 301 301 301 301 301 301 300 300 300 300 300 300 300 300 299 299 299 299 299 299 299 299 299 299 298 298 298 298 297 297 298 298 298 297 297 297 296 296 297 297 298 298 299 299 299 299
308 307 307 306 306 306 305 305 304 304 304 304 304 304 303 303 303 303 303 303 302 302 302 302 302 302 302 302 302 301 301 301 301 301 301 301 301 301 301 301 301 301 300 300 300 300 300 300 300 300 300 299 299 299 299 299 299 299 299 298 298 298 298 298 297 297 296 295 295 295 295 296 296 296 296 296 296 296 296 296 297 297 298 298 298 298
306 306 306 306 305 305 305 304 304 304 304 303 303 303 303 303 303 303 303 303 303 303 302 302 302 302 302 302 301 301 301 301 301 300 300 300 300 300 300 300 300 300 300 300 299 299 299 299 299 299 299 299 299 298 298 298 298 297 297 297 297 296 296 296 295 294 294 293 292 292 292 292 293 293 294 294 294 295 295 295 296 296 297 297 297 298
306 306 305 305 304 304 304 304 303 303 303 303 303 303 303 303 303 302 302 302 302 302 302 302 301 301 301 301 301 301 300 300 300 300 300 300 300 299 299 299 299 299 298 298 298 298 298 297 297 297 297 297 297 296 296 296 296 295 295 295 294 294 294 293 293 292 291 291 290 290 290 290 290 291 292 293 293 294 294 294 295 295 296 296 297 297
305 305 305 304 304 304 303 303 303 303 302 302 302 302 302 302 302 302 301 301 301 301 300 300 300 300 299 299 299 299 299 298 298 298 298 298 297 297 297 297 296 296 296 295 295 295 294 294 294 294 294 294 294 293 293 293 293 293 292 292 292 292 292 291 291 290 289 289 289 289 289 289 289 289 290 291 292 292 293 293 293 294 294 294 295 295
304 304 304 303 303 303 303 302 302 302 302 302 302 302 302 301 301 301 300 300 299 299 299 298 298 297 297 297 296 296 296 296 295 295 295 294 294 294 293 293 293 292 292 292 291 291 291 291 291 291 291 291 291 290 290 290 290 290 290 290 290 290 289 289 289 288 288 288 288 287 288 288 288 288 289 289 290 290 291 291 291 292 292 292 292 292
303 303 303 302 302 302 302 302 302 302 302 301 301 301 301 300 300 299 299 298 298 297 296 296 295 295 294 294 294 293 293 293 292 292 292 292 291 291 291 290 290 290 290 289 289 289 289 289 289 289 289 289 289 288 288 288 288 288 288 288 288 288 288 288 288 288 287 287 287 287 287 287 287 287 288 288 288 289 289 289 289 289 289 289 289 289
302 302 302 302 302 302 301 301 301 301 301 300 300 300 299 299 298 298 297 296 295 295 294 293 293 292 292 292 291 291 291 291 290 290 290 290 290 289 289 289 289 289 288 288 288 288 288 288 288 288 288 288 288 288 287 287 287 287 288 288 288 288 288 287 287 287 287 287 287 286 286 286 286 287 287 287 287 287 288 288 288 288 288 288 288 288
302 301 301 301 301 301 301 301 301 300 300 299 299 298 297 297 296 295 294 293 293 292 292 291 291 291 290 290 290 290 290 289 289 289 289 289 289 289 289 288 288 288 288 288 288 288 288 288 288 288 288 287 287 287 287 287 287 287 287 287 287 287 287 287 287 287 287 287 287 286 286 286 286 286 286 287 287 287 287 287 287 287 287 287 287 287
301 301 301 300 300 300 300 300 300 299 299 298 297 296 295 294 293 293 292 291 291 291 290 290 290 289 289 289 289 289 289 289 289 289 288 288 288 288 288 288 288 288 288 288 288 288 288 288 288 288 287 287 287 287 287 287 287 287 287 287 287 287 287 287 287 287 287 287 286 286 286 286 285 285 286 286 286 287 287 287 287 287 287 287 287 288
300 300 300 300 300 299 299 299 299 298 297 296 295 294 293 292 292 291 291 290 290 290 290 289 289 288 288 288 288 288 288 288 288 288 288 288 288 288 288 288 288 288 288 288 288 288 287 288 287 287 287 287 287 287 287 287 287 286 286 286 287 287 287 287 287 286 286 286 286 286 286 285 285 285 285 286 286 286 286 287 287 287 287 287 287 288
300 300 300 299 299 298 298 297 297 295 294 293 292 291 291 291 290 290 290 289 289 289 289 288 288 288 288 288 288 288 288 288 288 288 288 288 288 288 288 288 288 288 287 287 287 287 287 287 287 287 287 287 287 286 286 286 286 286 286 286 286 286 286 286 286 286 286 286 286 286 285 285 285 285 285 286 286 286 286 287 287 287 287 287 287 288
298 298 298 297 297 296 295 294 293 292 291 290 290 290 290 290 289 288 288 288 288 288 287 287 287 287 287 288 288 287 287 287 287 287 287 287 287 287 287 288 288 287 287 287 287 287 287 287 287 287 287 287 286 286 286 286 286 286 286 286 286 286 286 286 286 286 286 286 286 286 285 285 285 286 286 286 286 286 287 287 287 287 287 287 288 288
297 296 295 295 294 293 292 291 290 290 290 289 289 289 288 288 288 287 287 287 287 287 287 287 287 287 287 287 288 288 287 287 287 287 287 287 287 287 287 287 287 287 287 287 287 287 287 287 287 287 287 286 286 286 286 286 286 286 286 286 286 286 286 286 286 286 286 286 286 286 286 286 286 286 286 286 286 287 287 287 287 287 287 288 288 288
294 294 293 292 291 290 290 289 289 289 289 289 288 288 288 287 287 287 287 287 287 287 287 287 286 286 287 287 288 288 288 288 288 287 287 287 287 287 287 287 287 287 287 287 287 287 287 287 287 286 286 286 286 286 286 286 286 286 286 287 287 287 287 287 286 286 286 286 286 286 286 286 286 286 286 287 287 287 287 287 287 287 288 288 288 288
292 291 290 290 289 289 289 289 288 288 288 288 287 287 287 287 286 286 287 287 286 286 286 286 286 286 286 287 288 288 288 288 287 287 287 286 286 286 287 287 287 286 286 286 287 287 287 287 286 286 286 286 286 286 286 286 286 287 287 287 287 287 287 287 287 287 287 286 286 286 286 286 287 287 287 287 287 287 287 287 288 288 288 288 288 288
290 289 289 289 289 288 289 288 288 287 287 287 287 287 286 286 286 286 286 286 286 286 286 286 286 286 286 286 287 288 288 287 287 287 286 286 286 286 286 286 286 286 286 286 286 287 287 287 286 286 286 286 286 286 286 286 287 287 287 287 287 287 287 287 287 287 287 287 287 287 287 287 287 287 287 287 287 287 287 288 288 288 288 288 288 289
289 288 288 288 288 288 288 288 287 287 287 286 286 286 286 286 286 286 286 286 286 286 285 285 285 285 285 285 286 287 287 287 286 286 286 286 286 286 286 286 286 286 286 286 287 287 287 287 287 287 286 286 286 286 287 287 287 287 287 287 287 287 287 287 287 287 287 287 287 287 287 287 287 287 287 287 287 288 288 288 288 288 288 288 289 289
288 288 288 287 287 288 288 287 287 286 286 286 286 286 286 286 286 286 286 286 286 286 285 285 285 285 285 285 285 286 286 286 286 286 286 286 285 285 286 286 286 286 286 287 287 287 287 287 287 287 287 287 287 287 287 287 287 287 288 287 288 288 288 288 288 288 288 288 288 287 287 288 288 288 288 288 288 288 288 288 288 288 289 289 289 289
288 288 287 287 287 287 287 287 287 287 287 287 287 286 286 286 286 286 286 286 286 286 285 285 285 285 285 285 285 285 285 286 286 286 286 285 285 285 286 286 286 287 287 287 287 287 287 287 287 287 288 288 288 288 288 288 288 288 288 288 288 288 288 288 288 288 288 288 288 288 288 288 288 288 288 288 288 288 288 288 288 289 289 289 289 289
288 287 287 287 287 287 286 286 287 287 287 287 287 286 286 286 286 285 285 285 285 285 285 285 285 285 285 285 285 285 285 285 285 285 285 285 285 285 286 286 287 287 287 287 287 287 287 287 288 288 288 288 288 288 288 288 288 288 288 288 288 288 288 288 288 288 288 288 288 288 288 288 288 288 288 288 288 288 288 289 289 289 289 289 289 289
287 287 287 287 287 286 286 286 287 287 287 286 286 286 286 286 285 285 285 285 285 285 285 285 285 285 284 284 285 285 285 285 285 285 285 285 285 285 286 286 287 287 287 287 287 287 287 287 288 288 288 288 288 288 288 288 288 288 288 288 288 288 288 288 288 288 288 288 288 288 288 288 288 288 288 288 288 289 289 289 289 289 289 289 289 289
287 287 287 287 286 286 286 286 286 286 286 286 286 286 286 285 285 285 285 285 285 284 284 284 284 284 284 285 285 285 285 285 285 285 285 285 285 285 286 286 286 287 287 287 287 287 287 288 288 288 288 289 289 289 289 288 288 288 288 288 288 288 288 288 288 288 288 288 288 288 288 288 288 288 288 288 288 289 289 289 289 289 289 289 289 289
286 286 286 286 286 286 286 286 286 286 286 286 286 285 285 285 285 285 285 285 285 284 284 284 284 285 285 285 285 286 286 285 285 285 285 285 285 285 286 286 287 287 287 287 287 288 288 288 288 288 289 289 289 289 289 289 289 289 288 288 288 288 288 288 288 288 288 288 288 288 288 288 288 288 288 288 288 288 289 289 289 289 289 289 289 289
286 286 286 286 286 286 286 286 286 286 286 286 285 285 285 285 285 285 285 285 285 285 285 285 285 285 285 285 285 285 286 285 285 285 285 285 285 286 286 286 287 287 287 287 288 288 288 288 288 288 289 289 289 289 289 289 289 289 289 289 288 288 288 288 288 288 288 288 288 288 288 288 288 288 288 288 288 288 289 289 289 289 289 289 289 289
286 286 286 286 286 286 286 286 286 285 285 285 285 285 285 285 285 285 285 285 285 284 285 285 285 284 284 285 284 284 285 285 285 285 285 285 286 286 286 287 287 287 288 288 288 288 288 288 288 289 289 289 289 289 289 289 289 289 289 289 289 288 288 288 288 288 288 288 288 288 288 288 288 288 288 288 288 288 289 289 289 289 289 289 289 289
286 286 286 286 286 286 286 286 286 285 285 285 285 285 285 285 285 285 284 284 284 284 284 284 284 284 284 284 284 284 284 285 285 285 285 286 286 286 287 287 287 287 288 288 288 288 288 288 288 289 289 289 289 289 289 289 289 289 289 289 289 289 288 288 288 288 288 288 288 288 288 288 288 288 288 288 288 289 289 289 289 289 289 289 289 290
286 286 286 286 286 286 286 286 286 286 286 285 285 285 285 285 285 285 284 284 284 284 284 284 283 283 283 283 283 284 284 284 285 286 286 286 286 286 287 287 287 288 288 288 288 288 288 288 289 289 289 288 289 289 289 289 289 289 289 289 289 289 289 289 288 288 288 288 288 288 288 288 288 288 288 289 289 289 289 289 289 289 289 289 290 290
286 286 286 286 286 286 286 286 286 286 286 285 285 285 285 285 285 285 284 284 284 283 283 283 283 283 283 282 283 283 283 284 285 286 286 286 286 286 286 287 287 287 288 288 288 288 288 288 289 289 288 288 288 288 289 289 289 289 289 289 289 289 289 289 289 289 289 289 289 289 289 289 289 289 289 289 289 289 289 289 289 289 290 290 290 290
286 286 286 286 286 286 286 286 286 286 286 285 285 285 285 285 285 284 284 284 284 283 283 283 283 282 282 282 283 283 283 284 285 286 286 286 286 286 286 287 287 287 287 288 288 288 288 288 288 288 288 288 288 288 288 288 289 289 289 289 289 289 289 289 289 289 289 289 289 289 289 289 289 289 289 289 289 289 289 289 289 290 290 290 290 290
286 286 286 286 286 286 286 286 286 286 286 285 285 285 285 285 285 284 284 284 284 284 283 283 283 282 282 283 283 283 283 284 285 286 286 286 286 286 287 287 287 287 287 287 287 287 287 287 287 287 288 288 288 288 288 288 288 289 289 289 289 289 289 289 289 289 289 289 289 289 289 289 289 289 289 289 289 289 290 290 290 290 290 290 290 290
286 286 286 286 286 286 286 286 286 286 285 285 285 285 285 285 285 284 284 284 284 284 284 283 283 283 282 283 283 283 283 284 285 286 286 286 286 286 287 287 287 287 287 287 287 287 287 287 287 287 287 287 288 288 288 288 288 288 288 289 289 289 289 289 289 289 289 289 289 289 289 289 289 289 290 290 290 290 290 290 290 290 290 290 290 290
285 285 285 285 285 285 285 285 285 285 285 285 285 285 285 285 285 285 284 284 284 284 284 283 283 283 283 283 283 283 283 284 284 285 286 286 286 287 287 287 287 287 287 287 287 287 287 287 287 288 288 288 288 288 288 288 288 288 288 288 288 288 288 288 289 289 289 289 289 289 289 289 289 289 289 290 290 290 290 290 290 290 290 290 290 290
285 285 285 285 285 285 285 285 285 285 285 285 285 285 285 285 285 285 284 284 284 284 284 284 283 283 283 283 283 283 284 284 285 285 286 286 286 286 287 287 287 287 287 287 287 287 287 287 287 287 288 288 288 287 287 287 288 288 288 288 288 288 288 288 288 288 289 289 289 289 289 289 289 289 289 289 290 289 289 289 289 289 290 290 290 290
285 285 285 285 285 285 285 285 285 285 285 285 285 285 285 285 285 285 284 284 284 284 284 284 283 283 283 283 284 284 284 284 285 286 286 286 286 286 286 286 286 286 286 287 287 287 287 287 287 287 287 288 288 287 287 287 287 287 287 288 288 288 288 288 288 288 289 289 289 289 289 289 289 289 289 289 289 289 289 289 289 289 289 289 289 289
285 285 285 285 285 285 285 285 285 285 285 285 285 285 285 285 285 285 284 284 284 284 284 284 284 283 283 284 284 285 285 285 285 285 286 286 286 286 286 286 286 286 286 287 287 287 287 287 287 287 287 287 287 287 287 287 287 287 287 287 287 288 288 288 288 288 288 289 289 289 289 289 289 289 289 289 289 289 289 289 289 289 289 289 289 289
285 285 285 285 285 285 285 285 285 285 285 285 285 285 285 285 285 285 285 284 284 284 284 284 283 283 284 284 284 285 285 285 285 285 286 286 286 286 286 286 286 286 286 286 287 287 287 287 287 287 287 287 287 287 287 287 287 287 287 287 287 287 288 288 288 288 288 288 288 288 288 288 288 288 288 289 289 289 289 289 289 289 288 289 288 288
284 284 284 284 284 285 285 285 285 285 285 285 285 285 285 285 285 285 285 285 284 284 284 284 284 284 284 284 284 285 285 285 285 286 286 286 286 286 286 286 286 286 286 287 287 287 287 287 287 287 287 287 287 287 287 287 287 287 287 287 287 287 287 287 287 288 288 288 288 288 288 288 288 288 288 288 288 288 288 288 288 288 288 288 288 288
284 284 284 284 284 284 285 285 285 285 285 285 285 285 285 285 285 285 285 285 284 284 284 284 284 284 284 284 285 285 285 285 286 286 286 286 286 286 286 286 286 286 286 286 287 287 287 287 287 287 287 287 287 287 287 287 287 287 287 287 287 287 287 287 287 287 287 287 288 288 288 288 288 288 288 288 288 288 288 288 288 288 288 288 288 288
284 284 284 284 284 284 285 285 285 284 285 285 285 285 285 285 285 285 285 284 284 284 284 284 284 284 284 285 285 285 285 286 286 286 286 286 286 286 286 286 286 286 286 287 287 287 287 287 287 287 287 287 287 287 287 287 287 287 287 287 287 287 287 287 287 287 287 287 287 287 287 288 288 288 288 288 288 288 288 288 288 287 287 287 287 288
284 284 284 284 284 285 285 285 284 284 284 285 285 285 285 285 285 285 285 284 284 284 284 284 284 284 285 285 285 285 286 286 286 286 286 286 286 286 286 286 286 286 286 287 287 287 287 287 287 287 287 287 287 287 287 287 287 287 287 287 287 287 287 287 287 287 287 287 287 287 287 287 287 287 287 287 287 287 287 287 287 287 287 287 287 287
284 284 284 284 284 285 285 285 284 284 284 284 285 285 285 285 284 284 284 284 284 284 284 284 284 284 285 285 285 286 286 286 286 286 286 286 286 286 286 286 286 286 287 287 287 287 287 287 287 287 286 286 286 287 287 287 287 286 286 286 287 287 287 287 287 286 287 287 287 287 287 287 287 287 287 287 287 287 287 287 287 287 287 287 287 287
284 284 284 284 284 284 284 284 284 284 284 284 284 284 284 284 284 284 284 284 284 284 284 284 284 285 285 285 285 286 286 286 286 286 286 286 286 286 286 286 286 286 286 287 287 287 287 287 287 287 287 286 286 286 287 287 287 287 286 286 286 286 287 287 287 286 286 286 286 286 286 286 286 287 287 287 287 287 287 287 287 287 287 287 287 287
284 284 284 284 284 284 284 284 284 284 284 284 284 284 284 284 284 284 284 284 284 284 284 284 284 285 285 285 285 286 286 286 286 286 286 286 286 286 286 286 286 286 286 287 287 287 287 287 287 286 286 286 286 286 286 287 287 287 286 286 286 286 286 286 286 286 286 286 286 286 286 286 286 286 287 287 287 287 287 287 287 287 287 287 287 287
284 284 284 284 284 284 284 284 284 284 284 284 284 284 284 284 284 284 284 284 284 283 284 284 284 285 285 285 285 285 286 286 286 286 286 285 286 286 286 286 286 286 286 286 287 287 287 287 287 286 286 286 286 286 286 286 286 286 286 286 286 286 286 286 286 286 286 286 286 286 286 286 286 286 286 287 287 287 287 287 287 287 287 287 287 287
283 283 283 283 283 283 283 284 284 284 284 284 284 284 284 284 284 284 284 284 283 283 284 284 284 285 285 285 285 285 285 285 285 285 285 286 286 286 286 286 286 286 286 286 286 286 286 286 286 286 286 286 286 286 286 286 286 286 286 286 286 286 286 286 286 286 286 286 286 286 285 285 285 286 286 286 286 286 287 287 287 287 287 287 287 287
283 283 283 283 283 283 283 283 283 283 284 284 284 284 284 284 284 284 284 284 284 284 284 284 284 285 285 285 285 285 285 285 285 285 285 285 285 286 286 286 286 286 286 286 286 286 286 286 286 286 286 286 286 286 286 286 286 286 286 286 286 286 286 286 286 285 285 285 285 285 285 285 285 285 286 286 286 286 286 286 286 286 286 286 286 286
283 283 283 283 283 283 283 283 283 283 284 284 284 284 284 284 284 284 284 284 284 284 284 284 285 285 285 285 285 285 285 285 285 285 285 285 285 285 286 286 285 285 285 285 286 286 286 286 286 286 286 286 286 286 286 286 285 285 285 285 285 285 285 285 285 285 285 285 285 285 285 285 285 285 285 285 285 286 286 286 286 286 286 286 286 286
284 284 283 283 283 283 283 283 283 284 284 284 284 284 284 284 284 284 284 284 284 284 284 285 285 285 285 285 285 285 285 285 285 285 285 285 285 285 285 285 285 285 285 285 285 285 286 286 286 286 286 286 285 285 286 285 285 285 285 285 285 285 285 285 285 285 285 285 285 285 284 284 284 284 284 284 284 285 285 285 285 285 285 285 285 286
284 284 284 284 284 283 283 283 283 284 284 284 284 284 284 284 284 284 284 284 284 284 284 285 285 285 285 285 285 285 285 285 285 285 285 285 285 285 285 285 285 285 285 285 285 285 285 285 285 285 285 285 285 285 285 285 285 285 285 285 285 285 284 284 284 284 284 284 284 284 284 284 283 283 283 283 283 284 284 285 285 285 285 285 285 285
284 284 284 284 284 284 283 283 283 284 284 284 284 284 284 284 284 284 285 285 285 285 285 285 285 285 285 285 285 285 285 285 285 285 285 285 285 285 285 285 285 285 285 285 285 285 285 285 284 285 285 285 285 285 285 284 284 284 284 284 284 284 284 284 284 284 284 283 283 283 283 283 283 283 282 282 282 283 283 284 284 284 284 284 284 284
Wind_Speed
17 16 15 14 13 12 11 10 9 8 7 6 6 6 5 5 5 5 5 5 5 6 6 7 8 8 9 9 9 10 11 12 12 13 14 15 16 17 17 18 19 19 19 19 19 19 19 19 19 19 20 20 20 20 20 20 21 21 20 20 20 20 20 20 20 20 20 19 19 19 19 19 18 18 18 17 16 16 16 17 17 18 18 18 17 17
15 14 13 12 11 10 9 8 7 7 6 6 6 6 6 6 6 6 6 6 6 7 7 8 9 9 9 9 9 10 11 11 12 13 13 14 15 15 16 16 16 17 17 17 17 17 17 17 18 18 18 18 19 19 19 19 19 19 19 19 19 19 19 19 19 19 19 19 19 19 19 18 17 17 17 17 17 17 17 18 18 19 18 18 18 17
13 12 12 11 10 9 8 7 6 6 6 6 6 6 6 7 7 7 8 8 8 9 9 10 10 11 11 11 10 11 11 12 12 13 13 14 14 15 15 15 15 16 16 16 16 16 16 16 17 17 17 18 18 18 18 18 18 19 18 18 18 19 19 19 19 18 18 18 18 18 18 17 17 17 17 17 17 18 18 18 19 18 18 18 19 18
11 11 10 10 9 8 7 6 6 6 6 6 7 7 7 7 8 9 9 10 10 11 11 12 13 13 13 13 13 13 13 13 14 14 14 15 15 15 16 16 16 16 16 16 16 16 16 17 17 17 17 18 18 18 18 18 18 19 18 18 19 19 19 18 18 18 18 18 18 18 17 17 17 17 17 17 17 18 19 19 19 19 19 19 19 19
10 9 9 8 7 7 6 6 6 6 7 7 7 8 8 8 9 10 10 11 12 12 13 13 14 14 15 14 14 14 15 15 15 16 16 16 17 17 17 17 17 17 17 17 17 17 17 17 17 18 18 18 18 18 19 19 19 19 19 19 19 19 19 19 18 18 18 17 17 17 17 17 17 17 17 17 18 18 19 19 19 19 19 19 19 20
8 8 8 7 7 6 6 6 7 7 7 8 8 9 9 9 10 11 12 12 13 13 14 14 14 15 15 15 15 15 15 15 16 16 16 17 17 17 17 17 17 17 17 17 17 17 17 17 17 17 17 18 18 18 18 18 19 19 19 19 19 19 19 19 19 18 18 18 17 18 18 17 17 17 17 18 18 18 18 19 19 19 19 19 19 19
8 7 7 7 7 7 7 7 8 8 8 9 10 10 11 11 12 12 13 13 13 14 14 14 15 15 15 15 15 15 15 15 15 16 16 16 16 16 16 16 16 16 16 16 16 16 16 16 16 17 17 17 17 17 18 18 18 18 18 18 19 19 19 20 19 19 19 18 18 18 18 18 17 17 17 17 17 18 18 18 18 18 19 18 18 18
8 8 8 7 7 8 8 8 8 9 9 10 11 12 12 13 13 13 13 14 14 14 14 14 14 15 15 14 14 14 14 15 15 15 16 16 16 15 15 15 15 15 15 16 16 16 16 16 16 16 16 16 17 17 17 17 18 18 18 18 18 19 19 20 20 20 20 19 19 18 18 18 17 17 17 17 17 17 17 18 18 18 18 17 17 16
8 8 8 8 8 8 9 9 10 10 10 11 11 12 12 13 14 15 15 15 14 13 13 12 13 14 14 14 14 14 14 14 15 15 16 16 16 16 16 15 15 15 16 16 16 16 16 16 16 16 16 16 17 17 17 17 17 18 18 18 18 19 19 20 20 21 21 20 20 19 18 18 17 17 17 16 17 17 17 17 17 16 16 16 15 14
8 8 8 9 9 9 10 11 11 11 11 12 12 13 12 12 12 13 13 14 15 14 12 12 12 13 14 14 14 14 14 14 15 15 15 16 16 16 16 16 16 16 16 16 16 17 17 17 17 17 16 17 17 17 17 17 17 18 18 18 18 19 19 19 20 20 20 20 20 19 18 18 17 17 16 16 16 16 16 16 16 15 15 14 14 13
9 9 9 9 10 11 11 12 12 12 13 12 13 14 13 13 12 10 9 10 13 15 14 13 12 12 13 14 14 15 15 15 15 15 15 16 16 16 16 16 16 16 16 16 17 17 17 17 16 16 16 16 17 17 17 17 17 17 18 18 18 18 19 19 19 19 20 19 19 19 18 17 16 16 16 15 15 15 15 15 14 14 14 13 13 12
9 10 10 10 11 11 12 13 13 13 13 12 11 12 13 12 10 9 9 10 12 14 15 14 14 13 13 14 14 14 14 15 15 16 16 16 16 16 16 16 16 16 16 16 16 16 16 16 16 15 15 16 16 16 16 17 17 17 17 17 17 17 17 18 18 18 18 18 18 17 17 16 15 15 15 14 14 14 13 13 13 13 12 12 11 11
10 11 11 11 12 12 12 12 12 12 11 10 9 10 12 11 10 10 10 12 14 15 15 14 14 14 14 14 13 13 14 14 15 15 15 15 15 15 16 16 16 15 15 16 16 16 16 16 15 15 15 15 15 15 15 16 16 16 16 16 16 16 16 16 16 16 16 16 16 16 15 15 14 14 14 13 13 12 12 12 12 11 11 11 10 10
11 11 11 11 11 12 12 11 10 9 10 10 10 10 12 11 11 11 11 12 13 14 14 13 13 13 14 14 13 12 13 14 14 14 14 14 14 15 15 15 15 15 15 16 16 16 16 15 15 15 14 14 14 14 14 14 14 14 14 14 14 14 14 14 14 14 14 14 14 14 14 14 14 13 13 12 12 11 11 11 11 10 10 10 10 10
11 10 10 10 10 10 10 10 9 10 12 12 11 11 11 12 12 12 12 12 13 13 14 14 12 11 12 14 13 12 12 13 14 14 14 14 14 14 15 15 15 16 16 16 16 15 15 15 15 14 14 14 13 13 13 13 13 13 13 13 13 13 13 13 13 13 13 13 13 13 13 13 12 12 12 11 11 10 10 10 10 10 10 10 10 10
10 9 9 8 9 10 11 10 11 12 13 12 11 11 11 12 12 12 12 12 12 13 13 14 12 10 9 12 14 13 13 14 14 15 14 14 14 14 14 15 15 15 15 15 15 15 15 14 14 13 13 12 12 12 12 12 12 12 12 12 12 12 12 12 12 12 12 12 12 12 12 12 12 11 11 11 11 10 10 10 9 9 9 9 9 10
9 8 8 8 8 10 12 11 11 12 12 12 12 11 11 11 11 11 11 12 12 12 13 13 12 10 7 10 13 15 14 14 14 15 15 14 14 14 14 14 14 15 15 14 14 14 14 13 13 12 12 11 11 11 11 11 11 11 11 11 11 11 11 11 11 11 11 11 11 11 11 11 11 11 11 11 11 10 10 10 10 9 9 9 9 9
9 8 8 8 9 11 12 12 11 12 12 12 12 11 11 11 11 11 11 11 12 12 12 12 12 11 9 9 12 15 14 14 15 15 15 14 13 13 14 14 14 14 14 14 13 13 13 13 12 12 11 11 10 10 10 10 10 10 11 11 11 11 11 11 11 11 11 11 11 11 11 11 11 11 11 11 11 11 11 10 10 10 10 10 10 10
9 9 9 9 10 11 12 11 11 11 11 11 11 11 11 11 11 11 11 11 11 11 11 11 12 12 11 11 12 14 14 14 15 15 15 14 13 13 13 13 13 13 12 12 13 13 13 12 12 11 11 10 9 9 9 9 10 10 11 11 11 12 12 11 11 11 11 12 12 12 12 12 12 12 12 12 12 11 11 11 11 11 11 11 11 11
9 9 10 10 10 10 10 10 11 12 12 12 11 11 11 11 11 11 11 11 12 11 11 11 11 11 12 12 12 13 13 14 14 15 15 14 13 12 12 12 12 11 11 11 12 12 13 12 12 11 11 10 9 9 9 9 10 10 11 11 12 12 12 12 12 12 12 12 12 12 12 12 13 13 13 13 13 12 12 12 12 12 12 12 11 11
9 10 10 10 10 9 9 10 12 13 12 11 11 11 11 11 11 11 11 11 11 11 11 11 11 11 11 11 11 12 12 13 14 14 14 13 12 12 12 11 11 11 10 11 11 12 12 13 13 12 11 10 9 9 9 9 10 10 11 11 12 12 12 12 12 12 12 13 13 13 13 13 13 14 14 14 14 13 13 13 13 13 13 12 12 13
9 10 11 11 10 10 11 12 13 12 11 11 11 11 12 11 11 11 11 11 11 11 11 11 10 10 10 10 11 11 11 12 12 13 14 13 12 11 11 11 11 11 10 10 11 12 13 13 13 13 12 11 10 10 10 10 10 11 11 11 12 12 13 13 13 13 13 13 13 13 14 14 14 14 14 14 14 14 14 14 14 13 13 14 14 14
9 10 11 11 10 11 11 12 13 12 12 11 11 11 11 11 11 10 10 10 10 10 10 10 10 10 10 10 10 10 9 10 11 12 13 14 12 11 11 11 11 11 10 10 11 12 13 13 13 13 12 12 11 10 10 11 11 11 11 11 12 12 13 13 13 13 13 14 14 14 14 14 14 14 15 15 15 15 14 14 14 15 15 15 15 15
9 10 10 10 9 10 11 12 12 12 12 11 11 11 11 11 11 10 10 10 10 10 10 10 9 9 9 9 9 9 9 8 9 11 12 13 13 11 11 11 11 11 10 11 11 12 13 13 14 13 13 12 11 11 11 11 12 11 11 11 12 12 12 13 13 13 13 14 14 14 14 14 14 15 15 15 15 15 15 15 15 16 16 16 16 17
9 10 10 9 9 9 10 11 12 12 12 11 11 11 11 11 10 10 10 9 9 9 9 9 9 9 9 9 10 10 10 9 9 10 12 13 13 11 11 11 12 12 11 11 11 12 12 13 13 14 13 13 12 11 11 12 12 12 12 12 12 12 12 13 13 13 13 14 14 14 14 14 15 15 15 15 15 16 16 16 16 17 17 17 17 17
10 10 10 10 10 10 10 11 12 12 12 12 12 11 11 11 10 10 9 9 9 9 10 10 10 9 9 10 10 10 11 10 9 9 11 12 13 12 11 11 12 12 12 11 11 11 12 12 13 13 13 13 12 12 11 12 12 12 12 12 12 12 13 13 13 13 14 14 14 15 15 15 15 15 16 16 16 16 16 17 17 17 17 18 18 18
10 10 11 11 11 11 11 12 12 12 12 12 11 11 11 11 10 10 9 9 9 9 10 10 10 10 9 9 9 10 11 12 10 9 9 11 12 13 12 12 12 13 12 12 11 11 12 12 12 12 12 12 12 12 12 12 12 12 12 12 13 13 13 13 14 14 14 15 15 15 15 16 16 16 16 16 17 17 17 17 17 18 18 18 18 18
11 11 11 12 12 12 12 12 12 12 11 11 10 10 10 10 10 9 9 8 9 9 9 10 10 10 10 9 9 9 11 13 11 9 9 11 13 13 13 13 13 13 13 13 12 12 12 11 11 11 11 11 12 12 12 12 12 12 12 12 13 13 13 14 14 14 15 15 15 16 16 16 16 16 17 17 17 17 17 17 17 18 18 18 18 18
11 12 12 12 12 12 12 12 11 11 10 9 9 9 10 10 10 9 9 9 9 10 10 10 10 10 10 10 10 10 10 12 11 9 9 12 13 14 13 13 13 14 14 14 14 13 12 12 11 10 10 11 11 12 12 12 13 13 13 13 13 13 13 13 14 14 15 15 15 16 16 16 16 17 17 17 17 17 17 17 17 18 18 18 18 18
12 12 12 12 12 12 12 11 11 10 9 9 9 9 9 9 9 9 9 9 10 10 10 10 10 10 11 11 11 10 9 10 10 10 10 12 14 14 13 14 14 14 14 15 15 14 13 13 12 12 12 12 12 13 13 13 14 14 14 14 13 14 14 14 14 14 15 15 15 15 16 16 16 16 16 17 17 17 17 17 18 18 18 18 19 19
12 12 12 12 12 12 11 11 10 10 9 9 9 9 9 9 9 10 10 10 10 10 11 11 11 10 11 11 11 10 9 10 11 10 10 12 13 14 13 14 14 14 14 15 15 15 14 13 14 14 14 14 13 13 13 14 14 14 14 14 14 15 15 15 15 15 15 15 15 15 16 16 16 16 17 17 17 17 17 17 18 18 18 19 19 19
12 12 12 12 12 12 12 11 11 11 10 10 9 9 9 9 10 10 10 10 10 11 11 11 11 11 11 11 10 10 9 11 12 11 11 12 13 13 13 14 14 15 15 15 15 15 13 15 16 16 16 15 15 14 14 13 13 13 14 14 15 15 16 16 16 16 16 16 16 16 16 16 17 17 17 17 17 18 18 18 18 18 18 18 19 19
12 12 12 12 12 12 12 12 11 11 11 10 10 10 9 10 10 10 10 10 10 11 11 11 11 11 11 11 11 10 10 11 12 12 11 12 13 13 14 14 15 15 16 16 16 16 16 18 19 19 18 17 16 15 15 14 13 13 13 13 14 14 15 16 17 17 17 17 17 17 17 17 17 17 17 18 18 18 18 18 18 18 18 18 18 19
12 12 12 12 12 12 12 11 11 11 11 10 10 10 10 10 10 10 10 10 11 11 11 11 12 12 12 11 11 11 10 10 11 12 12 12 13 14 14 15 15 16 17 17 18 18 19 19 20 20 20 19 18 17 16 15 14 14 13 13 13 14 15 16 17 17 18 18 17 17 17 17 17 17 18 18 18 18 17 17 17 17 18 18 18 19
12 12 12 12 12 12 12 11 11 10 10 10 10 10 10 10 10 10 10 11 11 11 11 11 11 11 12 11 11 11 10 10 11 12 12 12 13 14 15 15 16 17 17 18 19 19 20 20 20 20 21 20 19 17 16 16 15 15 14 14 14 14 14 15 16 16 17 17 17 17 17 17 17 17 17 17 17 17 17 17 17 17 17 18 18 19
11 11 11 12 12 12 11 11 10 10 10 10 10 10 10 10 10 11 10 10 11 11 11 11 11 11 11 11 11 11 10 10 11 12 12 12 13 14 15 16 16 17 17 18 19 19 20 20 20 20 21 21 20 18 17 16 16 16 15 15 14 13 13 13 14 15 16 16 17 17 17 17 17 17 17 17 17 17 17 17 17 17 17 18 18 19
11 11 11 11 11 11 11 10 10 10 10 10 10 10 10 10 10 11 10 10 10 10 11 11 11 11 11 11 11 11 10 11 11 12 12 12 13 14 15 16 16 16 17 18 18 19 19 20 20 20 20 20 20 19 19 18 17 16 16 15 14 13 12 12 12 13 14 15 16 16 17 17 17 17 17 17 17 17 17 17 17 17 18 18 18 18
11 11 11 11 11 11 11 10 10 10 10 11 11 10 10 10 10 11 10 10 10 10 10 10 11 11 11 11 11 11 11 11 11 12 12 13 13 14 15 16 16 16 16 16 17 17 18 18 18 19 19 19 19 19 19 19 18 17 16 15 14 13 12 12 12 12 13 14 15 15 16 16 16 17 17 17 17 17 18 18 18 18 18 18 18 18
11 11 11 11 12 11 11 11 10 10 11 11 11 11 11 10 10 10 10 10 10 10 10 10 10 10 10 11 11 11 11 11 11 11 12 13 14 14 15 15 16 16 16 16 16 16 16 16 16 17 17 18 18 19 19 19 18 18 17 16 15 14 13 12 12 12 12 13 13 14 15 16 16 16 16 17 17 17 18 18 18 18 18 18 18 18
11 11 11 12 12 12 11 11 11 11 11 11 11 11 11 11 11 11 10 10 10 10 10 10 10 10 11 11 11 11 11 11 11 12 12 13 14 14 15 15 15 15 15 15 15 14 14 14 15 16 16 17 17 18 18 18 18 18 17 17 16 15 13 13 12 12 12 12 13 13 14 15 15 16 16 17 17 17 18 18 18 18 18 18 19 19
12 12 12 12 12 12 11 11 11 11 11 11 12 11 11 11 11 11 11 11 11 10 10 10 11 11 11 11 11 11 11 11 11 12 12 13 13 14 14 14 14 14 14 14 14 14 14 14 14 14 15 16 16 17 17 17 17 17 17 17 17 16 14 13 13 12 12 12 12 13 13 14 14 15 16 16 17 18 18 18 19 19 19 19 20 20
12 12 12 12 12 12 12 11 11 11 11 12 12 12 11 11 11 12 12 12 11 11 11 11 11 11 11 11 11 11 11 11 11 12 12 13 13 13 13 13 13 13 13 13 13 13 14 14 14 14 14 15 16 16 17 16 16 16 16 16 16 16 15 14 13 12 12 12 12 12 12 13 14 14 15 16 17 18 19 19 19 19 20 20 21 21
13 13 13 13 12 12 12 11 11 11 12 12 12 12 12 11 12 12 12 12 12 11 11 11 11 11 12 12 12 12 12 11 11 12 12 12 12 12 12 12 12 13 13 13 13 13 14 14 14 14 14 15 15 16 16 16 16 16 16 16 16 16 16 15 14 13 12 12 12 12 12 12 13 14 15 16 17 18 18 19 20 20 20 21 21 22
13 13 13 13 13 12 12 12 12 12 12 12 12 12 12 12 12 12 12 12 12 12 12 12 12 12 12 13 12 12 13 12 12 12 11 11 11 11 11 11 12 12 12 12 12 13 13 14 14 14 14 15 15 16 16 16 16 16 15 15 15 15 16 15 14 13 12 12 12 12 12 12 13 14 15 16 17 18 18 19 20 20 21 21 21 22
13 13 13 13 13 13 13 13 12 12 13 12 12 12 12 12 12 12 12 12 12 12 12 12 12 13 13 13 13 13 13 14 13 12 11 10 10 10 10 10 11 11 12 12 12 12 13 13 14 14 15 15 16 16 16 16 16 16 15 15 14 14 14 14 14 14 13 13 13 13 13 13 13 14 15 16 16 17 18 19 19 20 20 21 21 21
14 14 14 14 14 14 13 13 13 13 13 13 12 12 12 12 12 12 12 12 12 12 13 13 13 13 13 13 13 13 14 14 14 13 12 10 9 9 10 10 10 10 11 11 12 12 13 13 13 14 15 16 16 16 16 16 16 16 15 15 14 14 15 15 14 14 14 14 14 14 13 14 14 15 15 16 16 17 17 18 19 19 19 20 20 20
14 14 14 14 14 14 14 14 13 13 13 13 13 12 12 12 12 12 12 12 13 13 13 13 14 14 14 14 14 14 15 15 15 14 13 11 10 9 9 9 10 10 11 11 12 12 13 13 14 15 15 16 17 17 17 16 16 15 15 15 15 15 16 16 15 15 15 15 15 15 15 15 15 16 17 17 17 17 17 18 18 19 19 19 19 19
14 14 14 14 14 14 14 14 14 14 14 14 13 13 12 12 12 12 13 13 13 13 13 14 14 14 14 14 14 14 15 15 15 14 13 11 10 10 10 10 10 11 11 12 12 13 14 14 15 15 16 16 17 17 17 16 15 15 16 16 17 17 17 17 17 17 17 17 17 17 17 18 18 19 19 20 20 20 20 20 20 20 20 20 20 20
15 15 15 15 14 14 14 14 14 14 14 14 14 13 13 13 13 13 13 13 13 13 14 14 14 14 14 14 14 15 15 15 14 14 13 12 11 11 11 11 11 12 12 13 14 15 15 16 17 17 17 17 17 17 17 16 16 16 17 18 18 19 19 19 19 19 19 19 19 19 19 20 20 21 22 22 23 24 24 24 23 23 23 23 22 22
15 15 15 15 15 15 15 15 15 15 14 14 14 14 13 13 13 13 13 13 14 14 14 14 15 15 15 15 15 15 15 15 14 14 13 13 12 12 12 12 13 13 13 14 15 16 17 18 19 19 18 18 17 17 16 16 16 17 18 19 20 20 21 21 21 21 21 21 21 21 21 22 22 22 23 23 25 26 27 27 27 26 25 25 25 24
16 15 15 15 15 15 15 15 15 15 15 14 14 14 14 14 14 13 13 14 14 14 14 15 15 15 16 16 16 16 16 15 15 14 14 14 13 13 14 14 14 14 14 15 16 17 18 19 19 19 19 18 18 17 16 16 17 18 19 19 20 20 21 21 22 22 22 22 22 22 22 22 22 22 23 23 24 26 28 29 29 27 26 25 25 25
Wind_Direction
276 276 274 271 268 265 264 264 265 267 270 270 267 266 267 269 272 273 275 276 276 276 276 277 278 280 283 284 284 283 281 280 279 278 277 277 276 276 276 277 277 278 279 280 281 283 283 284 284 284 283 283 282 281 281 280 280 279 279 279 279 278 277 276 274 273 272 270 268 266 265 264 263 262 261 259 257 255 252 247 244 244 246 248 249 249
272 270 267 264 262 260 258 260 259 261 264 265 264 262 262 265 268 269 271 271 271 272 272 273 275 277 279 280 279 279 279 279 279 278 278 277 277 277 277 278 278 279 280 281 282 282 282 282 281 281 280 279 279 279 278 278 278 278 278 277 277 276 275 275 274 273 272 271 269 268 267 265 262 260 259 258 257 254 252 250 248 247 248 249 250 249
265 262 259 257 255 254 253 255 257 257 258 259 259 260 262 266 270 272 273 274 275 277 277 278 278 279 279 279 278 278 278 278 278 279 278 278 278 278 278 278 278 279 280 280 281 281 281 279 279 278 277 277 277 277 277 277 277 276 276 276 276 275 275 274 274 274 273 272 271 270 269 266 263 259 257 256 255 254 253 252 251 250 249 250 250 250
257 255 253 251 250 249 249 251 253 255 253 255 258 260 264 268 271 274 275 276 278 279 280 281 281 281 281 281 281 281 281 281 281 281 281 280 280 280 280 280 281 281 282 282 282 282 281 280 279 278 278 278 278 278 278 278 277 277 277 277 277 276 275 275 274 274 273 272 271 270 268 266 263 260 257 256 255 255 255 255 255 254 253 252 252 252
251 248 247 246 245 245 247 249 251 253 256 258 261 264 268 270 272 274 275 277 278 278 280 281 281 282 282 282 283 283 283 283 283 283 283 283 283 283 283 284 284 285 285 285 285 284 284 283 282 281 281 281 280 280 280 280 280 280 279 279 279 279 278 277 276 274 273 272 270 269 267 265 262 260 258 258 257 257 257 257 258 258 258 257 257 256
244 241 240 241 240 241 245 249 253 256 260 263 266 268 271 273 274 276 277 277 277 278 278 280 281 281 282 282 282 282 282 282 283 283 283 283 283 284 285 286 287 287 287 287 287 286 286 285 284 284 283 282 282 281 281 281 281 280 280 280 280 280 280 279 279 277 275 273 271 269 267 265 263 261 259 259 259 259 259 260 261 262 262 262 262 261
238 236 236 238 240 243 246 251 257 261 265 268 272 274 275 276 277 277 278 278 278 278 279 280 281 282 282 283 283 283 283 282 282 282 282 282 283 284 285 286 287 287 288 288 287 287 286 286 285 285 284 284 283 282 281 281 280 280 279 279 279 279 280 280 280 279 278 276 273 271 269 267 265 263 262 261 261 261 262 262 263 264 265 266 266 265
234 236 237 239 243 248 251 255 261 266 270 273 276 279 281 282 281 280 279 278 278 279 280 282 283 283 284 285 285 286 286 286 286 286 286 286 286 286 287 287 288 288 288 289 289 288 288 287 287 286 286 286 285 283 282 281 280 279 278 277 277 277 278 278 279 279 279 278 276 275 273 270 268 266 264 263 262 262 262 263 264 266 267 268 268 268
235 238 244 247 249 253 257 262 267 271 274 277 278 281 284 286 287 288 287 285 282 280 281 283 286 287 287 288 289 289 288 289 289 290 290 291 292 292 292 292 292 292 292 292 292 292 291 291 290 289 289 288 287 285 284 283 282 280 279 278 277 276 276 276 277 277 278 278 277 276 275 272 270 268 266 264 263 263 263 264 264 266 266 267 267 266
243 245 250 257 261 264 266 268 272 276 278 279 279 280 280 281 284 288 292 293 291 288 286 286 287 289 290 291 291 291 290 290 289 289 290 292 293 294 295 295 295 295 295 295 295 294 294 293 292 292 291 290 288 287 286 284 283 282 281 279 278 277 276 276 276 276 276 277 276 276 274 273 271 268 266 265 264 263 263 263 264 264 264 264 262 261
252 256 258 262 269 273 273 274 276 278 279 279 278 277 276 275 276 278 278 283 287 291 293 293 292 290 290 290 291 292 292 292 291 291 292 293 294 295 295 295 296 296 296 296 296 295 294 294 293 293 291 290 289 287 287 285 285 283 282 281 280 278 277 276 275 275 275 275 275 274 273 271 270 268 266 264 263 263 263 263 262 261 260 258 256 254
258 264 267 268 270 272 275 276 278 278 278 278 280 280 277 276 277 275 271 267 274 282 290 294 295 293 291 291 291 293 294 293 293 294 295 296 297 297 297 297 297 297 297 297 296 296 295 295 294 293 291 290 288 288 287 286 286 285 284 282 281 279 277 276 275 274 273 273 273 272 271 270 268 266 265 263 263 262 262 261 260 258 255 253 251 248
264 268 271 271 271 271 273 276 277 278 276 271 265 266 274 283 285 281 277 276 277 281 287 292 295 297 295 293 293 295 295 295 295 296 298 299 300 300 300 300 300 300 300 299 298 298 297 296 295 294 291 290 289 289 288 288 287 286 285 283 282 281 279 277 275 274 273 272 271 270 269 267 266 264 263 262 262 260 260 258 256 254 251 248 246 246
265 268 269 269 270 271 272 273 274 275 271 267 266 271 281 287 287 282 280 281 282 286 290 293 298 302 301 298 298 299 298 299 299 300 302 304 304 304 303 303 303 304 303 303 302 301 300 299 298 296 294 292 291 290 289 288 287 286 285 284 283 282 280 278 277 275 273 271 270 268 267 265 264 263 262 261 260 258 257 256 255 252 250 246 244 244
264 264 263 263 266 268 268 267 264 263 267 273 276 279 281 282 282 281 281 282 284 289 293 297 302 307 305 302 303 304 303 303 304 305 306 308 308 307 306 306 306 307 306 306 305 304 303 302 301 300 298 296 294 292 290 288 287 286 286 285 284 282 281 279 277 275 273 271 269 267 265 264 262 261 261 260 259 257 255 255 254 253 252 249 248 247
263 259 253 254 258 263 265 264 264 266 272 277 279 278 277 277 280 283 285 286 289 292 295 299 304 309 305 301 303 305 306 306 307 308 309 311 311 309 308 308 308 309 309 308 307 306 306 305 304 302 301 299 297 294 291 289 287 286 285 284 283 282 280 278 276 274 273 271 269 267 265 263 262 261 259 259 257 255 253 253 252 252 253 253 253 253
257 251 245 244 250 258 264 266 268 270 275 278 278 277 276 278 281 285 288 291 293 294 297 299 304 308 306 298 300 304 307 308 308 308 310 313 312 310 310 310 310 310 310 310 309 309 308 308 307 306 304 302 298 295 291 289 287 285 284 282 281 280 278 277 275 273 271 269 267 266 265 263 262 260 259 257 256 254 253 252 252 252 253 254 255 256
249 246 244 240 246 256 265 269 271 273 275 277 278 278 279 281 284 288 290 292 294 296 298 300 302 303 301 289 293 302 309 309 308 309 309 312 313 312 311 311 311 311 311 311 311 311 310 310 310 309 307 304 300 296 292 288 285 282 281 280 279 278 276 275 273 271 269 267 265 264 263 262 261 260 258 256 255 254 253 253 253 254 254 255 256 257
245 245 244 243 249 258 268 273 275 274 273 273 277 281 285 288 290 292 294 295 296 298 299 300 301 302 300 293 292 299 307 309 308 308 309 312 313 313 311 312 312 311 312 312 312 312 311 311 311 311 309 306 301 296 291 286 283 280 278 277 276 275 274 273 271 269 267 266 264 263 261 260 260 259 258 256 255 254 254 253 254 255 256 256 257 258
247 248 247 248 254 262 269 272 272 271 271 276 281 284 285 289 292 295 296 297 298 299 300 300 300 300 300 300 299 301 306 308 308 307 308 312 314 313 313 314 313 313 314 313 312 311 311 310 311 310 309 307 303 297 291 285 281 278 276 275 274 274 273 271 270 268 267 265 263 261 260 259 258 257 257 256 255 255 254 255 255 256 257 258 259 260
251 252 252 254 256 257 258 263 268 271 275 281 285 285 284 287 290 292 294 296 297 299 300 300 300 300 302 303 303 304 306 308 308 307 309 312 315 316 315 315 315 315 315 314 313 311 310 309 309 309 309 307 303 298 292 286 281 278 276 275 274 273 272 271 269 268 266 264 263 261 259 258 257 256 255 255 255 255 256 256 257 258 259 260 261 261
252 253 256 256 255 254 254 261 268 275 281 283 283 282 283 286 288 290 291 293 295 297 298 299 300 301 302 303 303 304 306 307 307 308 309 313 317 320 317 317 317 317 317 316 314 311 309 308 308 308 308 306 304 299 293 288 283 280 278 276 274 273 272 271 270 268 266 265 263 262 260 259 258 258 257 257 257 257 258 259 259 260 260 261 261 262
255 256 259 259 258 259 262 267 272 279 284 284 282 282 284 285 287 288 290 291 293 294 296 298 300 301 302 302 302 302 304 305 306 307 310 314 319 321 319 319 318 317 318 318 315 311 308 307 307 306 307 306 304 300 294 289 285 282 280 278 276 274 273 272 271 270 268 267 266 265 264 263 262 261 261 260 260 261 261 261 261 262 262 263 263 263
261 263 265 266 266 267 269 271 276 281 287 288 287 286 286 286 287 287 289 290 293 296 297 300 302 304 306 306 308 309 310 311 310 309 311 314 318 321 321 319 318 318 320 320 317 313 310 308 307 307 307 306 304 300 295 291 287 284 282 279 277 275 273 272 271 270 269 268 268 267 266 265 264 263 263 262 262 262 263 263 264 264 265 265 266 266
274 275 277 278 277 275 276 278 281 286 289 290 290 289 289 289 289 289 290 293 296 299 302 306 311 318 323 324 323 321 319 322 319 313 312 313 317 321 322 320 319 320 321 322 319 315 312 310 309 308 309 307 305 301 297 292 289 286 283 280 277 275 273 271 269 268 267 266 266 265 264 264 263 263 263 263 263 264 265 266 267 268 269 269 269 269
286 287 288 288 285 283 281 282 284 287 289 290 291 292 292 292 292 293 295 299 302 306 310 313 317 323 327 329 325 319 316 320 319 314 312 312 317 321 322 321 320 320 320 323 322 318 315 313 311 311 310 309 308 304 299 295 291 287 284 281 278 275 273 271 269 267 266 265 265 264 264 264 264 264 264 265 266 267 268 270 271 272 272 272 272 271
287 287 287 287 286 284 282 283 284 286 288 290 292 292 291 291 292 293 296 300 303 306 307 306 308 313 315 314 311 308 308 313 315 313 311 312 315 319 322 322 322 321 322 324 324 321 317 313 312 312 312 311 310 307 303 299 294 290 287 283 280 277 275 273 271 269 268 267 267 266 266 266 266 267 268 268 269 270 271 272 273 274 274 274 273 273
284 284 283 283 283 282 282 283 284 286 288 290 290 289 287 287 288 291 294 295 296 295 293 293 295 299 299 295 293 297 301 304 308 312 311 311 313 315 320 322 323 324 323 323 323 320 316 312 311 312 312 312 312 311 308 304 300 295 291 288 284 281 278 276 273 272 271 270 269 269 269 269 269 270 270 271 272 273 273 274 275 275 275 275 275 275
281 280 280 280 281 282 283 284 286 287 288 289 287 285 284 285 286 288 289 289 287 285 283 286 289 292 292 291 293 295 297 295 300 308 310 308 309 312 318 321 324 325 324 323 322 322 319 315 313 312 312 312 312 311 310 307 303 300 296 293 289 286 283 280 277 275 274 272 272 271 271 271 272 272 272 273 274 274 275 276 276 276 277 277 278 278
279 279 279 281 282 284 285 287 289 290 290 289 286 284 283 283 284 285 285 285 283 281 282 283 285 286 288 289 292 295 295 290 295 304 306 304 305 310 315 318 322 325 325 323 324 326 325 318 314 313 312 312 311 310 308 306 303 300 298 295 292 289 286 283 281 279 277 276 275 274 274 274 274 274 274 274 275 276 276 277 278 278 279 279 280 280
286 286 286 287 288 289 291 293 293 294 293 291 288 286 283 282 282 281 281 282 281 282 283 282 281 282 282 283 283 283 286 287 293 300 302 300 302 308 314 317 320 323 325 324 325 326 324 316 312 312 312 312 311 310 307 304 301 299 297 295 293 291 288 286 283 281 279 278 277 276 276 276 276 276 276 276 276 277 277 278 279 279 280 280 281 281
286 288 290 291 292 294 295 296 297 296 295 293 290 288 284 282 281 280 279 280 280 280 280 279 279 279 280 279 277 274 275 283 291 298 300 300 303 308 315 317 320 322 323 323 322 320 318 313 310 310 311 312 312 310 308 305 301 298 295 294 292 291 289 287 285 283 281 279 278 278 277 276 276 276 276 276 276 277 277 277 278 278 279 280 280 280
281 283 286 288 290 291 292 293 293 293 292 290 289 286 283 281 279 278 278 277 277 277 277 277 278 278 280 280 279 278 276 280 287 295 302 303 305 309 315 318 320 321 322 321 320 317 314 313 312 312 312 313 314 314 312 309 304 300 297 295 293 291 289 288 286 284 283 281 280 278 277 276 275 275 275 275 275 275 275 276 276 277 278 278 279 280
275 277 280 282 284 285 287 288 288 288 287 286 284 282 280 278 276 275 274 274 275 274 275 276 277 279 281 281 281 281 280 277 283 292 302 304 306 310 314 317 319 320 320 319 318 317 316 315 314 314 314 314 315 316 316 313 310 307 304 301 297 293 290 288 286 285 283 282 281 279 277 276 275 274 274 274 274 274 274 274 275 276 276 277 278 279
273 274 276 278 280 282 284 286 286 286 284 283 281 279 277 275 273 272 272 271 272 273 274 275 277 279 281 282 283 284 280 276 281 292 302 305 307 311 313 314 316 317 317 316 316 315 314 314 314 314 314 315 316 317 317 315 314 313 312 309 304 299 294 290 287 285 284 282 281 279 277 276 275 274 274 274 274 274 274 274 275 275 276 277 277 278
276 277 278 279 281 283 284 286 287 286 285 282 280 278 276 274 272 271 270 270 270 271 272 273 275 276 278 280 284 285 283 281 284 293 301 305 307 309 310 311 312 313 313 313 313 312 312 312 312 313 314 315 317 318 317 315 314 315 315 313 310 305 300 294 290 286 284 282 281 279 278 277 276 275 275 275 275 275 275 275 275 276 276 276 277 277
280 281 281 281 283 284 285 286 287 287 285 284 281 278 275 274 273 272 272 271 270 269 270 271 272 273 274 276 278 281 283 284 287 292 298 301 304 306 307 307 308 309 309 309 310 310 310 311 312 313 314 315 316 317 317 316 315 316 316 316 314 311 305 299 292 287 283 281 279 278 277 276 276 275 275 275 275 276 276 276 276 276 275 275 276 276
283 283 283 283 284 285 286 287 287 285 284 284 282 280 278 276 275 275 274 273 271 270 269 269 269 270 270 271 273 275 278 281 285 289 293 297 299 301 302 303 304 305 305 306 307 308 308 310 311 313 314 314 315 316 317 317 318 320 320 319 316 313 309 304 296 289 284 281 279 277 276 275 275 275 274 275 275 275 275 275 275 275 274 274 274 275
282 283 283 283 284 285 286 287 286 284 282 281 281 281 280 278 277 277 276 275 274 272 271 269 268 267 267 268 269 272 274 278 281 286 290 293 296 298 299 300 301 302 303 303 304 305 306 308 310 312 314 315 315 316 316 318 320 321 321 319 317 315 312 309 303 297 290 285 281 279 276 275 274 273 273 273 273 274 274 274 273 274 274 274 274 274
282 282 282 283 283 283 285 285 285 283 280 280 280 280 279 279 278 277 276 275 274 273 272 271 269 268 267 267 269 271 274 278 281 285 289 292 294 296 296 297 298 299 300 300 301 303 305 308 310 311 313 314 315 316 317 319 321 322 322 322 321 320 317 314 310 304 298 291 286 282 279 276 275 274 273 273 273 272 272 273 273 273 273 274 275 275
282 282 282 282 282 282 282 282 281 280 279 278 278 278 277 277 276 276 275 274 272 272 271 271 270 269 268 268 269 272 274 278 281 285 288 290 292 293 294 294 294 295 296 297 299 301 304 308 311 312 314 315 315 316 317 320 322 323 324 324 323 321 319 317 314 310 304 298 292 288 284 281 279 276 275 274 273 273 273 273 274 274 275 276 276 277
281 281 281 281 281 281 280 279 278 276 276 276 277 277 277 276 276 275 275 274 274 273 272 272 272 272 270 270 270 271 273 276 281 285 288 290 291 292 291 291 291 292 294 296 298 300 303 306 309 312 314 315 316 316 318 321 323 324 324 323 322 320 319 319 318 316 311 306 300 296 291 288 284 281 278 276 275 274 275 276 277 278 279 280 280 280
279 279 279 279 279 279 279 277 276 275 274 274 275 275 275 275 275 275 275 276 276 276 276 275 275 275 274 274 274 275 276 279 282 287 290 291 291 290 288 287 287 288 292 295 298 301 304 306 309 311 313 314 316 317 319 323 324 324 324 324 323 323 323 323 322 320 314 310 305 300 296 291 287 283 280 278 277 277 278 279 280 281 282 283 283 284
277 277 277 277 277 276 276 276 276 275 274 274 274 274 274 273 273 273 274 275 276 277 277 276 277 277 276 276 278 281 283 285 288 291 292 291 289 286 284 282 283 285 289 294 298 301 304 306 309 312 314 316 317 319 322 325 326 325 325 325 324 323 322 323 324 323 318 314 310 305 301 297 292 287 284 281 280 279 280 281 281 282 283 284 286 287
276 276 276 276 275 276 276 276 275 274 274 274 274 274 274 273 272 272 272 274 275 275 275 276 276 276 275 276 279 282 285 289 292 294 293 289 285 281 279 278 279 282 286 290 295 299 303 307 311 313 315 316 317 319 322 324 325 325 325 326 325 324 323 324 325 324 322 319 316 313 310 305 300 296 291 287 285 284 283 283 283 284 285 286 287 289
275 275 275 275 275 275 276 276 275 274 274 274 274 274 274 273 272 272 272 273 273 274 274 275 275 275 276 278 281 284 287 291 295 297 296 291 284 278 275 274 275 277 281 286 291 296 301 306 310 313 315 316 317 318 320 322 324 324 325 325 324 323 323 323 324 323 322 320 318 317 314 310 306 302 299 295 291 289 287 286 286 286 287 288 289 290
273 273 274 274 275 275 276 275 275 275 275 275 275 275 275 274 273 272 272 272 272 273 273 274 274 275 276 278 281 284 287 291 294 297 297 293 285 277 271 270 272 275 279 283 288 293 298 302 306 310 313 315 317 318 319 320 321 323 323 323 322 321 320 321 321 321 319 318 318 317 315 313 310 308 305 302 297 294 291 290 290 290 290 291 291 292
273 273 273 273 274 274 274 274 274 275 275 276 276 276 275 274 273 273 272 271 271 271 271 272 273 274 275 276 279 282 285 289 292 293 293 289 283 277 271 268 269 272 277 281 285 289 292 295 299 303 308 311 314 316 318 319 320 320 321 320 320 318 318 318 318 318 317 317 317 316 316 315 314 313 311 307 304 300 298 297 296 295 295 296 296 295
275 274 274 274 273 273 273 273 273 274 274 275 275 276 275 273 272 272 271 271 270 270 271 272 273 274 274 275 277 280 284 286 288 289 287 283 277 273 271 270 271 274 278 282 285 287 290 292 295 299 302 307 311 313 316 317 318 318 318 318 317 317 317 317 318 318 318 318 318 317 317 316 315 314 312 310 307 305 303 302 301 300 300 300 300 299
275 275 274 273 273 272 272 272 272 273 273 273 274 274 273 272 271 270 270 270 270 270 271 272 274 274 275 276 277 279 282 284 285 285 283 278 273 268 267 269 272 278 284 287 291 295 298 299 300 301 304 307 310 312 313 314 315 316 316 316 316 317 317 318 319 320 320 320 319 319 317 316 314 313 311 308 306 305 304 303 302 301 300 301 301 300
275 274 272 272 271 271 271 271 271 272 272 272 272 272 272 271 270 269 268 268 269 270 271 272 273 274 275 276 277 279 281 282 283 282 281 277 272 268 267 269 273 279 286 291 295 300 303 305 306 306 306 308 311 312 311 312 312 313 313 314 316 317 317 317 319 319 319 318 317 315 314 312 309 307 305 303 301 301 300 300 300 300 299 299 299 299